THOR ABLESTAR R/B, 1508

Orbit data source: Space-Track

THOR ABLESTAR R/B, 1508 is space debris in LEO originally from a launch on Fri, 13 Aug 1965 UTC launched from the Air Force Western Test Range (AFWTR). Debris objects in space refer to the collection of defunct objects orbiting the Earth. Examples of debris include non-operational satellites, rocket bodies, and fragments generated from explosions, collisions, or faulty payload assembly.

Loading next visibility...
Identifier
1508, 1965-065B
Orbit
LEO
Country
Flag of USUS
Related business
Manufacturer
Aerojet
Mission
Spacecraft
Bus & Motor
ABLESTAR, Unknown motor
Mass
~600 kg wet, 600 kg dry
Launch date (UTC)
1965-08-13 (61 years ago)
Launch vehicle
Unknown
Launch site
Air Force Western Test Range (AFWTR)
Object type
Payload
Rocket body
Debris
Shape & HBR
CYL, 2.4 m
Radar Cross Section
Large (>1 m²)

Expand to show TLE details & history
Last TLE update: 5 hours ago

TLE from 5 hours ago
0 THOR ABLESTAR R/B
1  1508U 65065B   26238.14192785  .00000031  00000-0  42241-4 0  9995
2  1508  90.1321 308.6132 0043474 133.1530 285.9516 13.36098367974757
Epoch: 2026-08-26T03:24Z
TLE epoch observation values (Epoch: 2026-08-26T03:24:22.566Z)
Latitude
58.71538°
Longitude
-77.09629°
Altitude
1,125.018 km
Speed
7.3 km/s
True Right ascension
20h 33m 35s
True Declination
58° 34' 12"
Sunlit
Object was in daylight at epoch
Visualization orbit readout
Latitude
Unknown
Longitude
Unknown
Altitude
Unknown
Speed
Unknown
Apparent Right ascension
Unknown
Apparent Declination
Unknown
Sunlit
N/A
Visualization observer readout
Local Sidereal Time
23:18:37
Azimuth
Unknown
Elevation
Unknown
Doppler factor
Unknown
Orbital elements
Apogee altitude
1,153.52 km
Perigee altitude
1,088.317 km
Semi-major axis
7,499.056 km
Eccentricity
0.00435
Inclination
90.1321°
RAAN
308.6132°
Arg. of periapsis
133.153°
True anomaly
285.4719°
Mean anomaly
285.9516°
Eccentric anomaly
285.71182°
Mean motion
3.34221 °/min
Orbital period
107.71 mins
BSTAR
0.000042241
Loading maneuver chart data...
Computing Atmospheric mass density...
Loading historical data...
Loading historical data...
Loading historical data...
Loading historical data...
Loading historical data...
Loading historical data...
Loading historical data...

Documentation

Showing up to 5 results
|